Location: Ciserano
(45.5833°N, 9.6000°E)
Time: 16:42:04
(UTC+00:00)

SJ 16-02 - Pass Details

Date: 18 April 2021
Orbit: 605 x 617 km, 75.0° (Epoch: 11 May)

Event Time Altitude Azimuth Distance (km) Brightness Sun altitude
Exits shadow 02:55:22 14° 287° (WNW) 1,711 3.3 -15.9°
Maximum altitude 02:56:35 16° 306° (NW) 1,639 3.3 -15.7°
Drops below altitude 10° 02:59:17 10° 343° (NNW) 1,987 4.2 -15.3°
Sets 03:02:22 0° 6° (N) 2,899 5.4 -14.8°
